カタログに戻る

STARLINK-5705

運用中通信VLEO
NORAD 55472·PAYLOAD·🇺🇸 United States

打ち上げ Feb 2, 2023 から Cape Canaveral Space Force Station

Loading…

次のパス (今後24時間)

TLE

最新Source: CelesTrak SupGP

元期: Sep 14, 2026, 21:54 UTC

1 55472C 23015Z   26257.91298611 -.00061588  00000+0 -22306-2 0  2574
2 55472  43.0044 333.1604 0002178 279.1085 312.2778 15.27609840    13

AllMySatでSTARLINK-5705をリアルタイム追跡

Download on the App Store